OpenBCM V1.13 (Linux)

Packet Radio Mailbox

DB0FHN

[JN59NK Nuernberg]

 Login: GUEST





  
I0OJJ  > AMSAT    13.07.26 02:39l 319 Lines 15205 Bytes #999 (0) @ WW
BID : A5QV3_I0OJJ
Read: OE5RCO DJ6UX GUEST
Subj: 2Line Orbital Elements
Path: DB0FHN<OE2XZR<OK1TOR<SR6DWH<SR1BSZ<EA2RCF<LU9DCE<VE3CGR<VE3TOK<IR0AAB<
      I0OJJ
Sent: 260713/0026z @:I0OJJ.ITA.EU [Rome] $:A5QV3_I0OJJ

>From i0ojj@i0ojj.ampr.org Mon Jul 13 02:26:51 2026
Received: from i0ojj.ampr.org by i0ojj.ampr.org (JNOS2.0q.1) with SMTP
	id AA17064255 ; Mon, 13 Jul 2026 02:26:51 +0200
Received: by i0ojj.ampr.org with SMTP
	id AA17064252 ; Mon, 13 Jul 2026 02:26:18 +0200
Message-Id: <17064253@i0ojj.ampr.org>
>From: i0ojj@i0ojj.ampr.org

SB KEPS @ AMSAT  $ORB26194.1
2Line Orbital Elements 26194.AMSAT

QST de W1STR

AMSAT Orbital Elements for Amateur Satellites in TLE Format
>From Orbital Analysis Office
New England Sci-Tech STEM Education Center
Natick MA July 13, 2026
To all radio amateurs


These element sets describe the orbits of various satellites 
in use by the amateur radio community. For details see:
www.amsat.org/keplerian-elements-formats/

A daily update of element sets is available at:
www.amsat.org/tle/daily-bulletin.txt
or without bulletin text:
www.amsat.org/tle/dailytle.txt


AO-07
1 07530U 74089B   26193.68997190 -.00000027  00000-0  12178-3 0  9995
2 07530 101.9904 207.2023 0012659  83.0276  31.2526 12.53698515363710
UO-11
1 14781U 84021B   26193.86076065  .00000786  00000-0  85406-4 0  9993
2 14781  97.8074 159.1518 0009191  97.8974 262.3288 14.90845722260957
LO-19
1 20442U 90005G   26193.29864192  .00000048  00000-0  33720-4 0  9999
2 20442  98.8847 215.7954 0012440 129.3206 230.9083 14.34130209905999
AO-27
1 22825U 93061C   26193.73178369  .00000035  00000-0  30449-4 0  9995
2 22825  98.6869 261.1346 0008901  32.7099 327.4633 14.30948662710658
FO-29
1 24278U 96046B   26193.52226945  .00000020  00000-0  54923-4 0  9993
2 24278  98.5221  38.9215 0350477  30.8650 331.2590 13.53275422476596
GO-32
1 25397U 98043D   26193.56255600  .00000019  00000-0  28421-4 0  9991
2 25397  99.0083 186.9627 0002120 118.5783 241.5609 14.24433030454941
ISS
1 25544U 98067A   26193.79871965  .00004831  00000-0  95802-4 0  9997
2 25544  51.6301 173.3406 0006695 288.1916  71.8344 15.48994114575722
NO-44
1 26931U 01043C   26193.44327055  .00000039  00000-0  45472-4 0  9998
2 26931  67.0492 178.9472 0005950 266.3908  93.6514 14.31964345294061
SO-50
1 27607U 02058C   26193.77913648  .00000397  00000-0  64839-4 0  9996
2 27607  64.5517  49.8013 0074600 257.7275 101.5471 14.83095806268255
CO-55
1 27844U 03031E   26193.81805928  .00000160  00000-0  88191-4 0  9992
2 27844  98.6742 202.0549 0010788 108.7901 251.4449 14.24350634195326
RS-22
1 27939U 03042A   26193.89396664  .00000552  00000-0  93145-4 0  9999
2 27939  98.3474  18.9808 0010999 180.5496 310.1741 14.73511722219330
CO-65
1 32785U 08021C   26193.90119955  .00003342  00000-0  21157-3 0  9997
2 32785  97.8287 175.8607 0007239 308.7828  51.2753 15.09687806989075
CO-66
1 32791U 08021J   26193.52388480  .00011335  00000-0  35129-3 0  9998
2 32791  97.7520 192.6480 0002794 162.8059 197.3278 15.33607267991171
RS-30
1 32953U 08025A   26193.85144541  .00000029  00000-0  13585-3 0  9996
2 32953  82.5053 339.4745 0018569 254.4206 105.4824 12.43180761822889
SRMSAT
1 37841U 11058D   26193.23869166  .00000350  00000-0  45879-4 0  9995
2 37841  19.9714 267.8421 0011854 118.8974 271.3920 14.11580711761369
ZACUBE-1
1 39417U 13066B   26193.80190617  .00001290  00000-0  10312-3 0  9995
2 39417  97.8010 156.2656 0043887 162.8946 197.3769 15.01322390684576
Delfi-N3xt
1 39428U 13066N   26193.80915522  .00004082  00000-0  35475-3 0  9996
2 39428  97.8334 114.0990 0075822 120.6086 240.2641 14.95345058678456
GOMX-1
1 39430U 13066Q   26193.78811551  .00000865  00000-0  13621-3 0  9997
2 39430  97.6477  32.6355 0128492 355.9571   4.0586 14.69539412673672
LO-74
1 39440U 13066AA  26193.85098882  .00001863  00000-0  17551-3 0  9995
2 39440  97.8909 142.9428 0055957 303.3134  56.2734 14.93957370680821
AO-73
1 39444U 13066AE  26192.91261323  .00003917  00000-0  24262-3 0  9996
2 39444  97.8287 164.8814 0037972 118.2418 242.2652 15.09793381683390
DTUSAT-2
1 40030U 14033W   26192.54081605  .00004323  00000-0  23319-3 0  9990
2 40030  98.0873 191.8202 0009024 142.6007 217.5854 15.15323901656371
LILACSAT-2
1 40908U 15049K   26193.87102991  .00013885  00000-0  22957-3 0  9991
2 40908  97.4629 231.6990 0008281 148.3423 211.8329 15.52304289599732
Lapan A3
1 41603U 16040E   26193.84067407  .00002095  00000-0  67461-4 0  9996
2 41603  97.1497 189.1474 0008245 286.3965  73.6371 15.33269418558743
CAS-2T
1 41847U 16066G   26193.79655213  .00000636  00000-0  97279-4 0  9995
2 41847  98.3814 269.2397 0342367  52.0250 311.1348 14.44767499508498
TechnoSat
1 42829U 17042E   26193.31433347  .00002176  00000-0  15666-3 0  9991
2 42829  97.4310 350.0210 0017695  12.7462 347.4209 15.05099876490486
AO-91
1 43017U 17073E   26193.60594825  .00003412  00000-0  15083-3 0  9993
2 43017  97.4674  60.3031 0148120 240.5020 118.1370 15.13039278469230
S-Net D
1 43186U 18014G   26193.72856074  .00002692  00000-0  14005-3 0  9998
2 43186  97.5339  98.3608 0006389 295.6032  64.4541 15.16904418462631
S-Net B
1 43187U 18014H   26193.67454889  .00002895  00000-0  15043-3 0  9999
2 43187  97.5344  98.2944 0006937 289.5444  70.5039 15.16873842462623
S-Net A
1 43188U 18014J   26193.72729711  .00002635  00000-0  13708-3 0  9993
2 43188  97.5355  98.5607 0006860 290.3810  69.6686 15.16912661462638
S-Net C
1 43189U 18014K   26193.67856045  .00002909  00000-0  15119-3 0  9991
2 43189  97.5374  98.5909 0008153 281.0963  78.9353 15.16865140461179
Ten-Koh
1 43677U 18084G   26193.48892643  .00001876  00000-0  14412-3 0  9990
2 43677  98.0754  26.9162 0009983  38.1645 322.0284 15.03036085419965
PO-101
1 43678U 18084H   26193.84371975  .00001265  00000-0  10534-3 0  9994
2 43678  98.1219  31.1757 0012966  91.6099 268.6609 15.00557947420064
QO-100
1 43700U 18090A   26193.78864200  .00000000  00000-0  00000+0 0  9997
2 43700   0.0292  50.9048 0002219 109.7092  79.7680  1.00269701 27931
MinXSS-2
1 43758U 18099A   26193.75808015  .00031684  00000-0  59117-3 0  9997
2 43758  97.4535 270.8221 0008420 167.9951 192.1502 15.48699812418080
AO-95
1 43770U 18099N   26193.70025572  .00006951  00000-0  26300-3 0  9992
2 43770  97.4379 253.8593 0007082 250.2721 109.7754 15.27240564417116
SNUSat 2
1 43782U 18099AA  26193.57895174  .00004801  00000-0  21177-3 0  9992
2 43782  97.4051 246.5761 0009931 197.0195 163.0710 15.22214772416896
SnugLite
1 43784U 18099AC  26193.69279971  .00007384  00000-0  27527-3 0  9992
2 43784  97.3864 247.7284 0003383 165.8241 194.3094 15.27722984417215
ITASat 1
1 43786U 18099AE  26193.70925475  .00003672  00000-0  17667-3 0  9993
2 43786  97.4019 244.7142 0010781 260.4139  99.5878 15.19362966416786
EAGLET 1
1 43790U 18099AJ  26193.58069118  .00001913  00000-0  11153-3 0  9997
2 43790  97.4222 242.5773 0009508 254.7473 105.2707 15.13122395416178
ESEO
1 43792U 18099AL  26193.65699149  .00001355  00000-0  10133-3 0  9997
2 43792  97.3953 229.9533 0010828 243.6477 116.3638 15.04315129415636
JO-97
1 43803U 18099AX  26192.68722269  .00009972  00000-0  30109-3 0  9990
2 43803  97.4124 255.6172 0006518 168.9842 191.1545 15.34443331417383
Suomi 100
1 43804U 18099AY  26193.73443014  .00007931  00000-0  28390-3 0  9998
2 43804  97.4181 254.0402 0010278 180.4241 179.6992 15.28995113417320
ISAT
1 43879U 18111D   26193.75672330  .00104276  00000-0  84399-3 0  9993
2 43879  97.5864 131.0427 0007362 144.6436 215.5315 15.70444929415171
UWE-4
1 43880U 18111E   26193.76628622  .00027634  00000-0  53442-3 0  9998
2 43880  97.5844 123.3656 0005747 204.5147 155.5830 15.47716069414736
Sparrow
1 43881U 18111F   26193.79922753  .00197525  00000-0  86714-3 0  9999
2 43881  97.6090 137.2518 0007117 143.2654 216.9104 15.84047501415418
Prox-1
1 44339U 19036A   26193.62375530  .00007060  00000-0  66490-3 0  9995
2 44339  23.9957 304.2578 0005764 339.2511  20.7755 14.91213865377277
Taurus 1
1 44530U 19059C   26193.79743792  .00003110  00000-0  50012-3 0  9995
2 44530  98.6427   0.2218 0007851 223.7202 136.3382 14.72354061362411
TO-108
1 44881U 19093C   26193.82511174  .00000790  00000-0  95095-4 0  9995
2 44881  97.7527 265.4309 0013794   9.3515 350.7955 14.86559235355229
RS-44
1 44909U 19096E   26193.72663766 -.00000000  00000-0 -52822-4 0  9990
2 44909  82.5240 322.7342 0218550  84.7372 277.8625 12.79748936305612
SALSAT
1 46495U 20068K   26192.54062004  .00004447  00000-0  15528-3 0  9998
2 46495  97.8855 197.0941 0008823 206.5203 153.5586 15.30139435319080
CSS (TIANHE-1)
1 48274U 21035A   26193.33050829  .00000806  00000-0  14701-4 0  9998
2 48274  41.4686 169.1964 0002428 290.9815  69.0763 15.58035041297092
CUTE
1 49263U 21088D   26193.76859081  .01535479  18640-2  13342-2 0  9998
2 49263  97.3999 295.7938 0007377 302.5697  57.4875 16.13668871266648
TeikyoSat 4
1 49396U 21102B   26193.64110078  .00001012  00000-0  66714-4 0  9997
2 49396  97.3665 222.1349 0011512 197.5823 162.5010 15.09592826256563
Z-Sat
1 49399U 21102E   26193.83418985  .00001715  00000-0  86198-4 0  9997
2 49399  97.3320 228.3789 0017373 152.4546 207.7613 15.18449410257330
KOSEN 1
1 49402U 21102H   26193.69818968  .00004563  00000-0  17339-3 0  9995
2 49402  97.3175 235.3629 0015316 115.4660 244.8165 15.27191331257919
HO-113
1 50466U 21131B   26193.87833281  .00000165  00000-0  64688-4 0  9998
2 50466  98.4986 286.1297 0004723  36.6987 323.4525 14.41380195238819
SNUGLITE 2
1 52899U 22065F   26192.62962967  .00000478  00000-0  99611-4 0  9994
2 52899  98.2230 337.4211 0006399 313.7213  46.3459 14.64390506214575
UmKA 1 (RS40S)
1 57172U 23091G   26193.81768958  .00003624  00000-0  16575-3 0  9992
2 57172  97.5041 252.4186 0013269  37.3812 322.8344 15.21105920167908
CubeBel-2 (EU11S)
1 57175U 23091K   26193.83000500  .00008572  00000-0  29937-3 0  9992
2 57175  97.5044 257.2846 0009813  34.4164 325.7710 15.29788592168223
